| time (UTC) | temp C | wind direction | speed KPH | gust KPH | rain 1hr cm | rain 24hr cm | rain mn cm | humidity % | barometer mb |
| 20260507030017 | 10 | 0 | 4.8 | 6.4 | 0.00 | 0.00 | 0.00 | 45 | 997.3 |
| 20260507023017 | 10 | 0 | 6.4 | 8.0 | 0.00 | 0.00 | 0.00 | 46 | 997.3 |
| 20260507020017 | 10 | 0 | 8.0 | 12.9 | 0.00 | 0.00 | 0.00 | 46 | 997.0 |
| 20260507013037 | 10 | 0 | 12.9 | 17.7 | 0.00 | 0.00 | 0.00 | 43 | 996.8 |
| 20260507010038 | 11 | 0 | 14.5 | 24.1 | 0.00 | 0.00 | 0.00 | 40 | 996.6 |
| 20260507003017 | 12 | 0 | 22.5 | 37.0 | 0.00 | 0.00 | 0.00 | 37 | 996.6 |
| 20260507000017 | 13 | 0 | 16.1 | 37.0 | 0.00 | 0.00 | 0.00 | 36 | 996.7 |
| 20260506233017 | 13 | 0 | 24.1 | 43.5 | 0.00 | 0.00 | 0.00 | 35 | 996.7 |
| 20260506230017 | 13 | 0 | 22.5 | 41.8 | 0.00 | 0.00 | 0.00 | 35 | 996.9 |
| 20260506223017 | 13 | 0 | 24.1 | 45.1 | 0.00 | 0.00 | 0.00 | 35 | 997.0 |
| 20260506220017 | 13 | 0 | 27.4 | 48.3 | 0.00 | 0.00 | 0.00 | 40 | 996.9 |
| 20260506213017 | 13 | 0 | 20.9 | 48.3 | 0.00 | 0.00 | 0.00 | 37 | 996.9 |
| 20260506210017 | 13 | 0 | 20.9 | 45.1 | 0.00 | 0.00 | 0.00 | 36 | 997.0 |
| 20260506203017 | 13 | 0 | 19.3 | 46.7 | 0.00 | 0.00 | 0.00 | 37 | 997.2 |
| 20260506200017 | 12 | 0 | 20.9 | 41.8 | 0.00 | 0.00 | 0.00 | 37 | 997.5 |
| 20260506193038 | 13 | 0 | 19.3 | 45.1 | 0.00 | 0.00 | 0.00 | 40 | 997.5 |
| 20260506190018 | 13 | 0 | 22.5 | 43.5 | 0.00 | 0.00 | 0.00 | 37 | 997.6 |
| 20260506183017 | 12 | 0 | 20.9 | 46.7 | 0.00 | 0.00 | 0.00 | 40 | 997.6 |
| 20260506180017 | 12 | 0 | 22.5 | 43.5 | 0.00 | 0.00 | 0.00 | 39 | 997.9 |
| 20260506173018 | 11 | 0 | 20.9 | 41.8 | 0.00 | 0.00 | 0.00 | 41 | 997.9 |
| 20260506170017 | 12 | 0 | 22.5 | 40.2 | 0.00 | 0.00 | 0.00 | 41 | 997.8 |
| 20260506163017 | 11 | 0 | 19.3 | 37.0 | 0.00 | 0.00 | 0.00 | 41 | 997.8 |
| 20260506160017 | 11 | 0 | 16.1 | 33.8 | 0.00 | 0.00 | 0.00 | 45 | 997.8 |
| 20260506153038 | 10 | 0 | 14.5 | 27.4 | 0.00 | 0.00 | 0.00 | 49 | 997.7 |
| 20260506150017 | 10 | 0 | 11.3 | 25.7 | 0.00 | 0.00 | 0.00 | 53 | 997.8 |
| 20260506143017 | 8 | 0 | 11.3 | 27.4 | 0.00 | 0.00 | 0.00 | 58 | 997.5 |
| 20260506140018 | 7 | 0 | 8.0 | 20.9 | 0.00 | 0.00 | 0.00 | 61 | 997.3 |
| 20260506133017 | 6 | 0 | 9.7 | 19.3 | 0.00 | 0.00 | 0.00 | 65 | 997.0 |
| 20260506130017 | 6 | 0 | 12.9 | 20.9 | 0.00 | 0.00 | 0.00 | 67 | 997.2 |
| 20260506123037 | 6 | 0 | 11.3 | 19.3 | 0.00 | 0.00 | 0.00 | 70 | 996.8 |
| 20260506120018 | 5 | 0 | 11.3 | 16.1 | 0.00 | 0.00 | 0.00 | 75 | 996.0 |
| 20260506113017 | 5 | 0 | 11.3 | 14.5 | 0.00 | 0.00 | 0.00 | 76 | 995.2 |
| 20260506110058 | 4 | 0 | 9.7 | 12.9 | 0.00 | 0.03 | 0.00 | 76 | 994.6 |
| 20260506103017 | 5 | 0 | 8.0 | 12.9 | 0.00 | 0.03 | 0.00 | 74 | 994.6 |
| 20260506100038 | 5 | 0 | 9.7 | 14.5 | 0.00 | 0.03 | 0.00 | 74 | 994.2 |
| 20260506093038 | 5 | 0 | 8.0 | 11.3 | 0.00 | 0.03 | 0.00 | 72 | 994.4 |
| 20260506090017 | 6 | 0 | 6.4 | 11.3 | 0.00 | 0.03 | 0.00 | 68 | 994.1 |
| 20260506083017 | 7 | 0 | 6.4 | 11.3 | 0.00 | 0.03 | 0.00 | 66 | 993.7 |
| 20260506073017 | 7 | 0 | 4.8 | 9.7 | 0.00 | 0.03 | 0.00 | 65 | 993.6 |
| 20260506043018 | 9 | 0 | 9.7 | 29.0 | 0.00 | 0.03 | 0.00 | 66 | 992.0 |
| 20260506040017 | 10 | 0 | 6.4 | 16.1 | 0.00 | 0.03 | 0.00 | 66 | 992.0 |
| 20260506033017 | 10 | 0 | 12.9 | 17.7 | 0.00 | 0.03 | 0.00 | 65 | 992.0 |